Location: Alphen aan den Rijn
(52.1277°N, 4.6689°E)
Time: 02:10:55
(UTC+02:00)

ISS - Pass Details

Date: 29 September 2017
Orbit: 401 x 408 km, 51.6° (Epoch: 17 October)

Event Time Altitude Azimuth Distance (km) Brightness Sun altitude
Rises 22:35:20 0° 266° (W) 2,329 0.7 -28.6°
Reaches altitude 10° 22:37:25 10° 265° (W) 1,470 -0.5 -28.8°
Enters shadow 22:37:27 10° 265° (W) 1,451 -0.5 -28.8°
